Location: Recife
(8.0585°S, 34.8848°W)
Time: 11:01:11
(UTC-03:00)

Transit 2A - Pass Details

Date: 22 April 2026
Orbit: 594 x 950 km, 66.7° (Epoch: 14 May)

Event Time Altitude Azimuth Distance (km) Brightness Sun altitude
Rises 06:39:01 0° 0° (N) 2,906 9.2 17.7°
Reaches altitude 10° 06:41:35 10° 12° (NNE) 1,966 8.6 18.4°
Maximum altitude 06:45:18 27° 71° (ENE) 1,156 9.6 19.2°
Drops below altitude 10° 06:48:57 10° 129° (SE) 1,927 8.7 20.1°
Sets 06:51:26 0° 141° (SE) 2,836 9.2 20.7°
